www.pogodaiklimat.ru

Погода и климат >> Архив погоды >> Китай >> Beijing


АРХИВ ПОГОДЫ в Beijing

Время (UTC), дата Ветер
(напр.,м/с)
 
Видим.   Явления Облачность Т
(С)
Тd
(С)
f
(%)
Тe
(С)
Тes
(С)
Комфортность P
(гПа)
Po
(гПа)
Тmin
(С)
Tmax
(С)
R
(мм)
R24
(мм)
S
(см)
18 11.06 Ю 2 3100 м мгла н/о +21.6 +17.4 77 +26 +26 душно 999.7 996.0 +26.9
21 11.06 СВ 1 2300 м мгла н/о +19.8 +17.6 87 +24 +24 комфорт 999.6 1000.0
00 12.06 В 1 2900 м мгла 9/9
[]
+24.0 +18.2 70 +28 +29 душно 1000.0 996.3
03 12.06 З 1 4200 м мгла 9/9
[]
+27.4 +17.6 55 +32 +34 очень
душно
999.7 1000.0
06 12.06 В 2 9000 м 9/9
[]
+31.0 +16.2 41 +34 +36 душно 997.3 993.6 +19.6
09 12.06 СВ 2 8000 м в посл. час ливневой дождь 10/10 1000 м
[]
+27.6 +18.6 58 +33 +33 очень
душно
997.5 998.0
12 12.06 СЗ 2 7000 м {ливн. осадки} 9/9 1000 м
[]
+23.6 +17.1 67 +27 +27 жарко 998.8 995.1 3
15 12.06 ЮВ 2 н/о мгла ?/? +23.7 +18.4 72 +28 +28 душно 998.4 998.0
18 12.06 В 2 3700 м мгла н/о +22.0 +17.6 76 +27 +27 душно 998.5 994.8 +31.5
21 12.06 В 3 2500 м мгла н/о +20.5 +17.3 82 +24 +24 комфорт 997.7 998.0
00 13.06 В 2 3600 м мгла 9/9 1500 м
[]
+21.3 +16.1 72 +25 +25 комфорт 1000.9 997.2 0.0
03 13.06 В 3 3500 м в посл. час ливневой дождь 10/10 1000 м
[]
+21.8 +17.2 75 +26 +26 душно 1002.1 1002.0
06 13.06 В 3 1600 м слабый ливневой дождь 10/10 600 м
[]
+17.3 +14.8 85 +17 +17 очень
холодно
1003.3 999.5 +17.3 10
09 13.06 В 2 30 км {ливн. осадки} 4/4 1000 м
[]
+21.9 +14.3 62 +25 +28 комфорт 1002.5 1003.0
12 13.06 штиль 0 16 км {ливн. осадки} 1/1 1000 м
[]
+19.3 +14.6 74 +21 +21 комфорт 1002.6 998.8 1
15 13.06 З 1 17 км ?/? +17.2 +14.8 86 +18 +18 холодно 1003.6 1004.0
18 13.06 В 1 11 км н/о +16.2 +14.7 91 +17 +17 холодно 1004.4 1000.6 +22.2
21 13.06 З 1 6000 м дымка н/о +15.3 +14.3 94 +16 +16 холодно 1004.9 1005.0
00 14.06 З 2 13 км 3/3
[]
+21.8 +14.4 63 +25 +30 комфорт 1005.0 1001.2
03 14.06 ЮЗ 2 17 км ясно +25.6 +14.4 50 +28 +47 жарко 1004.0 1004.0
06 14.06 Ю 3 26 км 8/8
[]
+29.5 +14.1 39 +31 +34 жарко 1001.9 998.2 +15.2
09 14.06 ЮВ 2 30 км 8/8 1500 м
[]
+31.3 +12.6 32 +32 +33 жарко 1001.2 1001.0
12 14.06 В 3 30 км 4/4
[]
+27.8 +14.8 45 +30 +30 жарко 1003.0 999.3
15 14.06 В 3 3200 м мгла ?/? +23.2 +17.9 72 +29 +29 душно 1005.9 1006.0
18 14.06 В 2 1500 м мгла ?/? +20.3 +17.7 85 +24 +24 комфорт 1006.6 1002.9 +31.6
21 14.06 СВ 2 1300 м мгла ?/? +19.5 +17.5 88 +22 +22 комфорт 1007.3 1007.0
00 15.06 ЮВ 2 2800 м мгла 9/9
[]
+22.6 +17.3 72 +27 +28 душно 1008.3 1004.6
03 15.06 В 2 н/о мгла 9/9
[]
+26.3 +16.5 55 +30 +32 душно 1008.1 1008.0
06 15.06 Ю 3 10 км 9/9
[]
+28.9 +16.8 48 +33 +34 очень
душно
1007.0 1003.3 +19.5
09 15.06 В 4 12 км 10/10 1500 м
[]
+27.9 +17.7 54 +32 +32 душно 1006.1 1006.0
12 15.06 ЮВ 4 20 км 10/10 1500 м
[]
+25.5 +15.2 53 +28 +28 жарко 1007.2 1003.5
15 15.06 В 2 6000 м мгла н/о +22.7 +17.0 70 +27 +27 душно 1008.3 1008.0
18 15.06 В 2 6000 м мгла ?/? +21.4 +16.4 73 +25 +25 комфорт 1008.7 1005.0 +29.6
21 15.06 В 1 3400 м мгла ?/? +19.9 +17.1 84 +24 +24 комфорт 1008.4 1008.0
00 16.06 СВ 1 2700 м мгла 9/9
[]
+21.7 +17.9 79 +26 +27 душно 1008.1 1004.4
03 16.06 ЮЗ 2 3600 м мгла 9/9 1000 м
[]
+25.0 +18.4 67 +30 +32 душно 1007.0 1007.0
06 16.06 Ю 2 н/о мгла 9/9 1000 м
[]
+28.4 +18.8 56 +34 +35 очень
душно
1004.9 1001.2 +19.8
09 16.06 Ю 3 8000 м 9/9 1000 м
[]
+29.5 +18.3 51 +34 +35 очень
душно
1003.4 1003.0
12 16.06 Ю 1 7000 м мгла 9/9 1000 м
[]
+28.0 +18.4 56 +33 +33 очень
душно
1004.2 1000.5
15 16.06 В 1 н/о мгла ?/? +27.2 +18.8 60 +32 +32 очень
душно
1005.4 1005.0
18 16.06 В 1 2000 м мгла ?/? +25.2 +20.9 77 +32 +32 очень
душно
1004.9 1001.2 +29.8
21 16.06 СВ 1 3000 м мгла н/о +24.5 +19.3 73 +30 +30 очень
душно
1005.5 1006.0
00 17.06 В 2 4300 м слабый ливневой дождь 10/10 1000 м
[]
+20.0 +18.5 91 +24 +24 комфорт 1006.6 1002.9 5
03 17.06 СЗ 1 14 км слабый ливневой дождь 9/9 1500 м
[]
+23.9 +17.9 69 +28 +30 душно 1006.4 1006.0
06 17.06 В 1 21 км {ливн. осадки} 9/9 1500 м
[]
+26.3 +16.3 54 +30 +32 душно 1005.3 1001.6 +19.9 0.8
09 17.06 ЮВ 3 10 км 9/9
[]
+27.5 +18.5 58 +32 +33 очень
душно
1003.4 1003.0
12 17.06 Ю 2 8000 м 9/9
[]
+26.3 +18.9 64 +31 +31 душно 1004.0 1000.3
15 17.06 Ю 1 н/о мгла н/о +23.8 +18.9 74 +29 +29 душно 1004.1 1004.0
18 17.06 СВ 1 2600 м мгла ?/? +21.5 +19.1 86 +26 +26 душно 1003.9 1000.2 +27.8
21 17.06 В 2 1800 м дымка н/о +20.9 +19.2 90 +26 +26 душно 1003.7 1004.0
00 18.06 ЮВ 1 1900 м мгла 9/9
[]
+24.3 +19.8 76 +30 +30 очень
душно
1004.0 1000.3
03 18.06 Ю 2 3000 м мгла 9/9
[]
+28.6 +19.5 58 +34 +36 очень
душно
1002.6 1003.0
06 18.06 ЮЗ 5 н/о мгла 9/9 1500 м
[]
+31.9 +18.8 46 +37 +38 очень
душно
999.9 996.2 +20.9
09 18.06 ЮЗ 3 7000 м 9/9 1500 м
[]
+31.5 +18.5 46 +36 +37 очень
душно
999.4 999.0
12 18.06 С 1 18 км 9/9 1500 м
[]
+28.0 +18.1 55 +33 +33 очень
душно
999.7 996.0
15 18.06 СВ 1 19 км ?/? +26.2 +17.0 57 +30 +30 душно 1000.4 1000.0

 

Местоположение метеостанции Beijing (Китай): широта 39.93 долгота 116.28 высота над уровнем моря 55 м.

В архиве по умолчанию представлена погода в Beijing за последнюю неделю. Архивные данные за месяц целиком и за предыдущие месяцы, начиная с января 2011 года, Вы можете получить, выбрав интересующий диапазон дат из раскрывающегося списка и нажав кнопку "Ввод!".


*Определитесь, кто Вы:
робот инопланетянин человек

Внимание! Время в таблицах - всемирное. Для получения местного времени необходимо прибавить поправку, которая в Beijing равна 8 ч.

Смотрите также архив погоды в соседних городах и на ближайших метеорологических станциях:

Погода в Huailai (Китай) (84 км)
Погода в Tianjin (Китай) (119 км)
Погода в Baoding (Китай) (135 км)
Погода в Fengning (Китай) (146 км)
Погода в Yu Xian (Китай) (147 км)
Погода в Zhangjiakou (Китай) (152 км)
Погода в Tangshan (Китай) (162 км)
Погода в Chengde (Китай) (183 км)
Погода в Potou (Китай) (207 км)
Погода в Leting (Китай) (231 км)

Пояснения к столбцам:

Ветер - указаны скорость ветра в м/с - средняя за 10 мин, порывы в срок и между сроками (в фигурных скобках) и направление, откуда дует ветер: С - северный, СВ - северо-восточный, В - восточный, ЮВ - юго-восточный, Ю - южный, ЮЗ - юго-западный, З - западный, СЗ - северо-западный.
Видимость - горизонтальная дальность видимости в метрах или километрах. При видимости от 1 до 10 км при отсутствии осадков обычно наблюдается дымка, при ухудшении видимости до 1 км и менее - туман. В сухую погоду видимость может ухудшаться дымом, пылью или мглою.
Явления - указаны атмосферные явления, наблюдавшиеся в срок или в последний час перед сроком; фигурными скобками обозначены явления, наблюдавшиеся между сроками (за 1-3 часа до срока); квадратными скобками обозначены град или гололедные отложения с указанием их диаметра в мм.
Облачность - указаны через наклонную черту общая и нижняя облачность в баллах и высота нижней границы облаков в метрах; квадратными скобками обозначены формы облаков: Ci - перистые, Cs - перисто-слоистые, Cc - перисто-кучевые, Ac - высококучевые, As - высокослоистые, Sc - слоисто-кучевые, Ns - слоисто-дождевые, Cu - кучевые, Cb - кучево-дождевые. Подробнее классификацию облаков см. в Атласе облаков (PDF).
T - Температура воздуха - температура, измеренная на высоте 2 м над землей.
Td - Температура точки росы - температура, при понижении до которой содержащийся в воздухе водяной пар достигнет насыщения.
f - Относительная влажность воздуха - влажноcть воздуха, измеренная на высоте 2 м над землей.
Te - Эффективная температура - температура, которую ощущает одетый по сезону человек в тени. Характеристика душности погоды. При расчете учитывается влияние влажности воздуха и скорости ветра на теплоощущения человека.
Tes - Эффективная температура на солнце - температура, которую ощущает человек, с поправкой на солнечный нагрев. Характеристика знойности погоды. Зависит от высоты солнца над горизонтом, облачности и скорости ветра. Ночью, в пасмурную погоду, а также при ветре 12 м/с и более поправка равна нулю.
P - Атмосферное давление - приведенное к уровню моря атмосферное давление.
Po - Атмосферное давление - измеренное на уровне метеостанции атмосферное давление.
Tmin - Минимальная температура - минимум температуры воздуха на высоте 2 м над землей.
Tmax - Максимальная температура - максимум температуры воздуха на высоте 2 м над землей.
R - Количество осадков - Количество выпавших осадков за период времени, мм. При наведении курсора мыши на число - период времени, за который выпало указанное количество осадков.
R24 - Количество осадков - Количество выпавших осадков за 24 часа, мм.
S - Снежный покров - Высота снежного покрова, см. При наведении курсора мыши на число - состояние снежного покрова и степень покрытия местности в баллах.